N2PUI Weather Reports


Display with metric or nautical units.
time (UTC)temp
F
wind
direction
speed
MPH
gust
MPH
rain 1hr
in
rain 24hr
in
rain mn
in
humidity
%
barometer
mb
20260510160327 55 232 2.0 2.0 0.00 0.08 0.08 64 1015.2
20260510155821 55 146 2.0 2.0 0.00 0.08 0.08 64 1015.1
20260510155318 55 192 2.0 2.0 0.00 0.08 0.08 65 1015.2
20260510154814 54 228 2.0 2.0 0.00 0.08 0.08 65 1015.0
20260510154310 54 8 3.0 3.0 0.00 0.08 0.08 66 1015.3
20260510153804 55 9 6.0 7.0 0.00 0.08 0.08 65 1015.2
20260510153300 54 323 3.0 3.0 0.00 0.08 0.08 66 1015.1
20260510152757 54 20 2.0 2.0 0.00 0.08 0.08 67 1015.1
20260510152254 54 248 4.0 5.0 0.00 0.08 0.08 67 1015.1
20260510151750 54 171 1.0 1.0 0.00 0.08 0.08 69 1014.8
20260510151249 53 150 0.0 0.0 0.00 0.08 0.08 70 1015.1
20260510150744 53 100 1.0 1.0 0.00 0.08 0.08 69 1014.9
20260510150240 53 252 3.0 3.0 0.00 0.08 0.08 69 1014.6
20260510145736 53 13 2.0 5.0 0.00 0.08 0.08 71 1014.7
20260510145233 53 118 2.0 3.0 0.00 0.08 0.08 72 1014.7
20260510144723 53 152 1.0 2.0 0.00 0.08 0.08 74 1014.4
20260510144220 53 192 1.0 2.0 0.00 0.08 0.08 75 1014.6
20260510143715 52 116 1.0 1.0 0.00 0.08 0.08 75 1014.7
20260510143211 53 315 2.0 2.0 0.00 0.08 0.08 76 1014.6
20260510142708 52 296 4.0 5.0 0.00 0.08 0.08 75 1014.5
20260510142205 52 214 2.0 2.0 0.00 0.08 0.08 76 1014.5
20260510141702 52 78 2.0 2.0 0.00 0.08 0.08 77 1014.3
20260510141200 52 309 4.0 5.0 0.00 0.08 0.08 79 1014.5
20260510140656 51 175 1.0 1.0 0.00 0.08 0.08 80 1014.2
20260510140156 51 155 1.0 1.0 0.00 0.08 0.08 81 1014.4
20260510135651 50 67 1.0 2.0 0.00 0.08 0.08 83 1014.3
20260510135147 50 177 1.0 2.0 0.00 0.08 0.08 86 1014.2
20260510134644 50 191 3.0 3.0 0.00 0.08 0.08 88 1014.0
20260510134142 49 262 3.0 3.0 0.00 0.08 0.08 90 1013.7
20260510133638 49 284 3.0 5.0 0.00 0.08 0.08 92 1013.8
20260510133133 48 349 3.0 3.0 0.00 0.08 0.08 94 1013.8
20260510132630 48 206 3.0 5.0 0.00 0.08 0.08 95 1014.0
20260510132127 48 289 4.0 6.0 0.00 0.08 0.08 95 1013.5
20260510131624 48 43 2.0 2.0 0.00 0.08 0.08 95 1013.8
20260510131122 48 328 1.0 2.0 0.00 0.08 0.08 95 1013.9
20260510130618 47 216 2.0 3.0 0.00 0.08 0.08 95 1013.7
20260510130116 47 5 3.0 5.0 0.00 0.08 0.08 95 1013.7
20260510125612 47 133 1.0 2.0 0.00 0.08 0.08 95 1013.8
20260510125108 47 185 1.0 1.0 0.00 0.08 0.08 95 1013.9
20260510124605 47 323 3.0 5.0 0.07 0.08 0.08 95 1013.8
20260510124102 50 275 5.0 8.0 0.07 0.08 0.08 95 1013.5
20260510123556 50 214 1.0 1.0 0.00 0.07 0.07 95 1013.4
20260510123053 50 177 1.0 1.0 0.00 0.07 0.07 95 1013.0
20260510122549 50 180 0.0 1.0 0.00 0.07 0.07 95 1013.0
20260510122046 50 176 0.0 0.0 0.00 0.07 0.07 95 1012.7
20260510121543 50 174 0.0 0.0 0.00 0.07 0.07 95 1012.8
20260510121040 50 145 0.0 1.0 0.00 0.07 0.07 95 1012.8
20260510120538 50 172 0.0 1.0 0.00 0.07 0.07 95 1012.8
20260510120033 50 176 0.0 0.0 0.00 0.07 0.07 95 1012.8
20260510115530 50 175 0.0 0.0 0.00 0.07 0.07 95 1012.5
20260510115027 49 214 0.0 0.0 0.00 0.07 0.07 95 1012.5
20260510114522 49 138 0.0 0.0 0.00 0.07 0.07 95 1012.5
20260510114019 48 124 0.0 0.0 0.00 0.07 0.07 95 1012.1
20260510113514 48 178 0.0 0.0 0.00 0.07 0.07 95 1012.2
20260510113012 48 179 0.0 0.0 0.00 0.07 0.07 95 1012.2
20260510112509 48 179 0.0 0.0 0.00 0.07 0.07 95 1012.2
20260510112005 48 179 0.0 0.0 0.00 0.07 0.07 95 1012.0
20260510111501 48 177 0.0 0.0 0.00 0.07 0.07 95 1011.9
20260510110957 48 177 0.0 0.0 0.00 0.07 0.07 95 1011.8
20260510110454 48 178 1.0 1.0 0.00 0.07 0.07 95 1011.8
20260510105950 48 173 0.0 0.0 0.00 0.07 0.07 95 1011.8
20260510105445 48 174 0.0 0.0 0.00 0.07 0.07 95 1011.6
20260510104940 48 174 0.0 0.0 0.00 0.07 0.07 95 1011.5
20260510104437 47 173 0.0 0.0 0.00 0.07 0.07 95 1011.5
20260510103934 47 165 0.0 0.0 0.00 0.07 0.07 95 1011.2
20260510103432 47 166 1.0 1.0 0.00 0.07 0.07 95 1011.1
20260510102926 48 154 0.0 1.0 0.00 0.07 0.07 95 1011.0
20260510102422 48 153 0.0 0.0 0.00 0.07 0.07 95 1011.0
20260510101920 48 133 2.0 2.0 0.00 0.07 0.07 95 1011.2
20260510101417 48 154 1.0 1.0 0.00 0.07 0.07 95 1011.0
20260510100915 47 133 0.0 0.0 0.00 0.07 0.07 95 1010.7
20260510100412 47 127 2.0 2.0 0.00 0.07 0.07 95 1010.7
20260510095907 47 110 0.0 0.0 0.00 0.07 0.07 95 1010.8
20260510095402 47 135 0.0 0.0 0.00 0.07 0.07 95 1010.8
20260510094856 47 139 1.0 1.0 0.00 0.07 0.07 95 1010.8
20260510094352 47 141 0.0 0.0 0.00 0.07 0.07 95 1010.8
20260510093848 47 140 0.0 0.0 0.00 0.07 0.07 95 1010.5
20260510093344 46 148 0.0 0.0 0.00 0.07 0.07 95 1010.6
20260510092840 46 148 0.0 0.0 0.00 0.07 0.07 95 1011.0
20260510092337 46 148 0.0 0.0 0.00 0.07 0.07 95 1010.7
20260510091832 46 169 0.0 0.0 0.00 0.07 0.07 95 1010.5
20260510091330 46 170 0.0 0.0 0.00 0.07 0.07 95 1010.5
20260510090826 46 166 0.0 0.0 0.00 0.07 0.07 95 1010.6
20260510090323 46 165 0.0 0.0 0.00 0.07 0.07 95 1010.4
20260510085818 46 150 0.0 0.0 0.00 0.07 0.07 95 1010.3
20260510085313 46 150 0.0 0.0 0.00 0.07 0.07 95 1010.3
20260510084809 46 150 0.0 0.0 0.00 0.07 0.07 95 1010.4
20260510084306 46 149 0.0 0.0 0.00 0.07 0.07 95 1010.2
20260510083803 46 150 0.0 0.0 0.00 0.07 0.07 95 1010.2
20260510083300 46 150 0.0 0.0 0.00 0.07 0.07 95 1010.4
20260510082755 46 150 0.0 0.0 0.00 0.07 0.07 95 1010.2
20260510082252 46 149 0.0 0.0 0.00 0.07 0.07 95 1010.4
20260510081750 46 149 0.0 1.0 0.00 0.07 0.07 94 1010.5
20260510081247 46 150 0.0 0.0 0.00 0.07 0.07 94 1010.0
20260510080743 46 150 0.0 1.0 0.00 0.07 0.07 94 1010.0
20260510080238 46 148 0.0 0.0 0.00 0.07 0.07 94 1010.1
20260510075735 46 151 0.0 0.0 0.00 0.07 0.07 94 1009.8
20260510075233 47 150 0.0 0.0 0.00 0.07 0.07 94 1010.0
20260510074730 46 134 1.0 1.0 0.00 0.07 0.07 94 1010.0
20260510074226 46 168 0.0 0.0 0.00 0.07 0.07 94 1010.0
20260510073722 47 133 0.0 0.0 0.00 0.07 0.07 94 1010.1
20260510073218 46 156 0.0 0.0 0.00 0.07 0.07 94 1009.6
20260510072714 46 156 0.0 0.0 0.00 0.07 0.07 94 1009.8
20260510072211 47 157 0.0 0.0 0.00 0.07 0.07 94 1009.8
20260510071708 47 145 0.0 0.0 0.00 0.07 0.07 94 1009.7
20260510071204 48 133 1.0 1.0 0.00 0.07 0.07 94 1009.6
20260510070702 48 160 0.0 0.0 0.00 0.07 0.07 94 1009.7
20260510070200 49 143 1.0 1.0 0.00 0.07 0.07 94 1009.4
20260510065654 49 139 1.0 1.0 0.00 0.07 0.07 94 1009.7
20260510065151 49 130 1.0 2.0 0.00 0.07 0.07 94 1009.4
20260510064648 49 131 0.0 0.0 0.00 0.07 0.07 94 1009.3
20260510064145 49 134 2.0 2.0 0.00 0.07 0.07 94 1009.4
20260510063642 49 138 1.0 1.0 0.00 0.07 0.07 93 1009.5
20260510063138 49 130 1.0 2.0 0.00 0.07 0.07 93 1009.4
20260510062634 49 128 0.0 1.0 0.00 0.07 0.07 93 1009.7
20260510062131 49 127 1.0 2.0 0.00 0.07 0.07 93 1009.7
20260510061626 49 161 0.0 0.0 0.00 0.07 0.07 93 1009.8
20260510061124 50 179 1.0 1.0 0.00 0.07 0.07 93 1009.8
20260510060620 50 130 1.0 1.0 0.00 0.07 0.07 93 1009.8
20260510060116 50 97 0.0 0.0 0.00 0.07 0.07 93 1009.5
20260510055612 50 90 0.0 1.0 0.00 0.07 0.07 93 1010.0
20260510055110 50 101 0.0 1.0 0.00 0.07 0.07 93 1010.0
20260510054606 50 141 1.0 2.0 0.00 0.07 0.07 93 1010.1
20260510054101 50 141 1.0 1.0 0.00 0.07 0.07 93 1010.1
20260510053601 50 132 3.0 3.0 0.00 0.07 0.07 93 1010.2
20260510053058 50 121 5.0 6.0 0.00 0.07 0.07 93 1009.7
20260510052554 50 141 3.0 3.0 0.00 0.07 0.07 93 1010.0
20260510052050 50 101 0.0 1.0 0.00 0.07 0.07 93 1010.0
20260510051546 50 77 0.0 1.0 0.00 0.07 0.07 93 1010.3
20260510051043 50 121 4.0 6.0 0.00 0.07 0.07 93 1010.1
20260510050540 50 109 4.0 5.0 0.00 0.07 0.07 93 1010.5
20260510050037 50 100 0.0 1.0 0.00 0.07 0.07 92 1010.6
20260510045534 50 128 1.0 1.0 0.00 0.07 0.07 92 1011.2
20260510045030 50 176 2.0 2.0 0.05 0.07 0.07 92 1010.7
20260510044527 51 15 3.0 3.0 0.12 0.07 0.07 92 1010.7
20260510044025 51 130 2.0 2.0 0.12 0.06 0.06 91 1010.5
20260510043520 51 151 0.0 1.0 0.12 0.05 0.05 91 1010.9
20260510043015 51 178 1.0 1.0 0.14 0.04 0.04 91 1011.1
20260510042510 51 157 0.0 0.0 0.12 0.03 0.03 91 1011.0
20260510042005 51 206 2.0 2.0 0.05 0.02 0.02 90 1011.0
20260510041503 51 282 2.0 3.0 0.00 0.01 0.01 91 1011.2
20260510041000 52 278 3.0 3.0 0.07 0.01 0.01 91 1011.0
20260510040456 52 281 2.0 2.0 0.07 0.01 0.01 91 1011.1
20260510035952 52 254 2.0 3.0 0.00 0.29 0.29 91 1011.0
20260510035449 52 281 3.0 3.0 0.00 0.29 0.29 91 1010.6
20260510034948 52 211 1.0 2.0 0.00 0.29 0.29 91 1010.7
20260510034447 52 200 2.0 2.0 0.00 0.29 0.29 91 1010.9
20260510033943 51 268 3.0 3.0 0.00 0.29 0.29 91 1010.7
20260510033439 51 182 1.0 1.0 0.00 0.29 0.29 91 1010.1
20260510032937 51 142 1.0 1.0 0.00 0.29 0.29 91 1009.6
20260510032433 51 135 3.0 3.0 0.00 0.29 0.29 91 1009.1
20260510031928 51 120 3.0 3.0 0.00 0.29 0.29 91 1009.4
20260510031424 51 130 3.0 5.0 0.00 0.29 0.29 91 1009.5
20260510030919 51 130 3.0 3.0 0.00 0.29 0.29 91 1009.6
20260510030415 51 125 2.0 2.0 0.00 0.29 0.29 91 1009.7
20260510025913 51 124 3.0 3.0 0.00 0.29 0.29 91 1009.6
20260510025410 51 126 2.0 2.0 0.00 0.29 0.29 91 1009.6
20260510024908 52 142 2.0 3.0 0.00 0.29 0.29 91 1009.5
20260510024404 51 128 2.0 2.0 0.00 0.29 0.29 91 1009.4
20260510023900 51 133 0.0 0.0 0.00 0.29 0.29 91 1009.5
20260510023356 51 137 1.0 1.0 0.00 0.29 0.29 91 1009.4
20260510022848 52 140 0.0 0.0 0.00 0.29 0.29 91 1009.2
20260510022347 51 121 3.0 3.0 0.00 0.29 0.29 91 1009.2
20260510021846 52 158 2.0 2.0 0.00 0.29 0.29 91 1008.9
20260510021345 52 117 3.0 3.0 0.00 0.29 0.29 91 1008.9
20260510020841 52 113 4.0 6.0 0.00 0.29 0.29 91 1008.9
20260510020341 52 119 2.0 3.0 0.00 0.29 0.29 91 1008.9
20260510015837 52 152 3.0 3.0 0.00 0.29 0.29 91 1009.0
20260510015333 52 124 3.0 3.0 0.00 0.29 0.29 90 1009.1
20260510014828 52 133 2.0 2.0 0.00 0.29 0.29 91 1008.9
20260510014326 52 140 1.0 1.0 0.00 0.29 0.29 90 1008.8
20260510013821 52 113 6.0 6.0 0.00 0.29 0.29 91 1008.6
20260510013317 52 137 3.0 3.0 0.00 0.29 0.29 91 1008.7
20260510012812 52 114 3.0 5.0 0.00 0.29 0.29 91 1008.7
20260510012312 52 132 3.0 5.0 0.00 0.29 0.29 91 1008.9
20260510011807 52 128 2.0 2.0 0.00 0.29 0.29 91 1008.9
20260510011303 52 130 2.0 2.0 0.00 0.29 0.29 91 1008.7
20260510010800 52 135 2.0 2.0 0.00 0.29 0.29 90 1008.4
20260510010256 53 139 3.0 5.0 0.00 0.29 0.29 90 1008.3
20260510005753 53 117 4.0 5.0 0.00 0.29 0.29 90 1008.4
20260510005249 53 111 5.0 6.0 0.00 0.29 0.29 90 1008.2
20260510004748 53 112 5.0 6.0 0.00 0.29 0.29 90 1008.5
20260510004245 53 128 3.0 3.0 0.00 0.29 0.29 90 1008.2
20260510003742 53 133 1.0 2.0 0.00 0.29 0.29 90 1008.1
20260510003239 53 128 3.0 5.0 0.00 0.29 0.29 89 1008.1
20260510002737 53 118 4.0 5.0 0.00 0.29 0.29 89 1008.0
20260510002235 53 121 3.0 3.0 0.00 0.29 0.29 89 1008.3
20260510001731 53 117 3.0 3.0 0.00 0.29 0.29 89 1008.4
20260510001230 53 125 2.0 3.0 0.00 0.29 0.29 88 1008.1
20260510000726 54 128 3.0 3.0 0.00 0.29 0.29 88 1007.9
20260510000226 54 130 3.0 3.0 0.00 0.29 0.29 88 1007.9
20260509235720 54 134 1.0 2.0 0.00 0.29 0.29 87 1007.9
20260509235216 54 140 1.0 1.0 0.00 0.29 0.29 87 1007.9
20260509234712 55 140 3.0 3.0 0.00 0.29 0.29 87 1007.8
20260509234209 55 143 1.0 2.0 0.00 0.29 0.29 86 1007.8
20260509233708 55 145 1.0 2.0 0.00 0.29 0.29 86 1007.7
20260509233205 55 160 0.0 0.0 0.00 0.29 0.29 85 1007.7
20260509232701 55 126 1.0 2.0 0.00 0.29 0.29 85 1007.7
20260509232158 55 158 0.0 1.0 0.00 0.29 0.29 85 1007.8
20260509231655 56 151 4.0 6.0 0.00 0.29 0.29 85 1007.4
20260509231152 55 177 2.0 2.0 0.00 0.29 0.29 85 1007.6
20260509230649 55 135 2.0 2.0 0.00 0.29 0.29 85 1007.4
20260509230146 56 144 5.0 7.0 0.00 0.29 0.29 85 1007.8
20260509225641 56 157 2.0 2.0 0.00 0.29 0.29 84 1008.0
20260509225137 56 181 3.0 3.0 0.00 0.29 0.29 85 1008.0
20260509224633 55 166 5.0 6.0 0.00 0.29 0.29 85 1008.1
20260509224130 55 171 5.0 6.0 0.00 0.29 0.29 84 1007.8
20260509223627 56 147 3.0 3.0 0.00 0.29 0.29 84 1008.0
20260509223124 56 194 2.0 3.0 0.00 0.29 0.29 84 1007.9
20260509222621 56 182 1.0 1.0 0.00 0.29 0.29 84 1007.7
20260509222116 56 160 3.0 5.0 0.00 0.29 0.29 84 1007.8
20260509221612 55 176 3.0 3.0 0.00 0.29 0.29 85 1007.7
20260509221108 55 180 4.0 6.0 0.00 0.29 0.29 85 1007.8
20260509220604 56 140 2.0 2.0 0.00 0.29 0.29 85 1007.7
20260509215556 56 184 1.0 2.0 0.00 0.29 0.29 85 1007.8
20260509215054 55 140 2.0 3.0 0.00 0.29 0.29 85 1007.7
20260509214551 55 205 7.0 9.0 0.00 0.29 0.29 85 1007.9
20260509214048 56 178 2.0 2.0 0.00 0.29 0.29 85 1008.0
20260509213544 56 179 1.0 2.0 0.00 0.29 0.29 86 1008.0
20260509213041 55 137 1.0 2.0 0.00 0.29 0.29 86 1008.1
20260509212538 55 178 5.0 6.0 0.00 0.29 0.29 86 1008.0
20260509212035 55 173 2.0 2.0 0.00 0.29 0.29 86 1008.1
20260509211530 55 127 3.0 3.0 0.00 0.29 0.29 86 1008.2
20260509211027 55 120 3.0 5.0 0.00 0.29 0.29 86 1008.3
20260509210524 55 172 1.0 1.0 0.00 0.29 0.29 86 1008.3
20260509210020 55 197 7.0 9.0 0.00 0.29 0.29 86 1008.1
20260509205514 55 239 5.0 7.0 0.00 0.29 0.29 87 1008.3
20260509205010 55 191 3.0 5.0 0.00 0.29 0.29 87 1008.4
20260509204507 55 228 4.0 5.0 0.00 0.29 0.29 87 1008.5
20260509204003 54 169 5.0 6.0 0.00 0.29 0.29 87 1008.6
20260509203459 54 145 4.0 5.0 0.00 0.29 0.29 87 1008.5
20260509202957 54 168 2.0 2.0 0.00 0.29 0.29 87 1008.5
20260509202452 54 226 6.0 8.0 0.00 0.29 0.29 87 1008.6
20260509201948 54 234 5.0 6.0 0.00 0.29 0.29 88 1008.5
20260509201443 54 183 6.0 10.0 0.00 0.29 0.29 88 1008.6
20260509200940 54 162 4.0 5.0 0.00 0.29 0.29 88 1008.8
20260509200440 53 227 3.0 3.0 0.00 0.29 0.29 88 1008.8
20260509195937 53 200 3.0 3.0 0.00 0.29 0.29 89 1008.8
20260509195433 53 222 5.0 7.0 0.00 0.29 0.29 89 1009.2
20260509194932 53 147 3.0 5.0 0.00 0.29 0.29 89 1008.9
20260509194428 53 182 1.0 1.0 0.00 0.29 0.29 89 1008.8
20260509193926 53 187 0.0 1.0 0.00 0.29 0.29 89 1009.0
20260509193425 53 170 1.0 2.0 0.00 0.29 0.29 90 1009.0
20260509192921 53 181 1.0 1.0 0.00 0.29 0.29 90 1008.8
20260509192418 53 182 3.0 3.0 0.00 0.29 0.29 91 1009.1
20260509191913 53 181 2.0 3.0 0.00 0.29 0.29 91 1009.4
20260509191409 53 144 1.0 1.0 0.00 0.29 0.29 92 1009.1
20260509190905 52 175 4.0 5.0 0.00 0.29 0.29 92 1009.4
20260509190402 52 171 0.0 1.0 0.00 0.29 0.29 93 1009.4
20260509185900 51 195 3.0 3.0 0.00 0.29 0.29 93 1009.3
20260509185356 51 168 4.0 5.0 0.00 0.29 0.29 93 1009.5
20260509184853 51 198 2.0 2.0 0.00 0.29 0.29 94 1009.5
20260509184350 51 174 0.0 0.0 0.00 0.29 0.29 94 1009.4
20260509183847 51 181 3.0 3.0 0.00 0.29 0.29 94 1009.3
20260509183342 52 193 4.0 5.0 0.00 0.29 0.29 94 1009.3
20260509182838 51 189 1.0 2.0 0.00 0.29 0.29 94 1009.5
20260509182336 51 192 3.0 3.0 0.00 0.29 0.29 95 1009.5
20260509181833 51 178 3.0 3.0 0.00 0.29 0.29 95 1009.2
20260509181330 51 154 1.0 2.0 0.00 0.29 0.29 95 1009.4
20260509180827 51 163 2.0 2.0 0.00 0.29 0.29 95 1009.4
20260509180323 51 172 1.0 1.0 0.00 0.29 0.29 95 1009.3
20260509175820 51 165 0.0 0.0 0.00 0.29 0.29 95 1009.1
20260509175316 51 190 1.0 2.0 0.00 0.29 0.29 95 1009.5
20260509174812 51 154 2.0 2.0 0.00 0.29 0.29 95 1009.1
20260509174307 51 189 4.0 5.0 0.00 0.29 0.29 95 1009.3
20260509173804 51 167 0.0 0.0 0.00 0.29 0.29 95 1009.3
20260509173254 51 162 0.0 0.0 0.00 0.29 0.29 95 1009.5
20260509172750 51 173 1.0 1.0 0.00 0.29 0.29 95 1009.5
20260509172247 51 149 3.0 3.0 0.00 0.29 0.29 95 1009.3
20260509171743 51 181 5.0 6.0 0.00 0.29 0.29 95 1009.1
20260509171239 51 165 0.0 1.0 0.00 0.29 0.29 95 1009.3
20260509170736 51 157 4.0 6.0 0.00 0.29 0.29 95 1009.3
20260509170232 50 125 3.0 3.0 0.00 0.29 0.29 95 1009.1
20260509165730 50 196 1.0 2.0 0.00 0.29 0.29 95 1009.2
20260509165225 50 162 2.0 2.0 0.00 0.29 0.29 95 1009.3
20260509164722 50 137 3.0 3.0 0.00 0.29 0.29 95 1009.4
20260509164218 50 205 2.0 2.0 0.00 0.29 0.29 95 1009.5
20260509163715 50 164 0.0 0.0 0.00 0.29 0.29 95 1009.6
20260509163212 51 170 1.0 1.0 0.00 0.29 0.29 95 1009.5
20260509162709 51 118 5.0 6.0 0.00 0.29 0.29 95 1009.4
20260509162205 51 172 3.0 3.0 0.00 0.29 0.29 95 1009.5
20260509161700 50 134 1.0 2.0 0.05 0.29 0.29 95 1009.6
20260509161156 50 168 3.0 3.0 0.05 0.29 0.29 95 1010.0
20260509160652 50 159 2.0 2.0 0.00 0.28 0.28 95 1009.8